Location: Prague
(50.0830°N, 14.4670°E)
Time: 16:26:27
(UTC+02:00)

RS-15 - Visible Passes

Search period start: 01 April 2023 00:00
Search period end: 11 April 2023 00:00
Orbit: 1884 x 2161 km, 64.8° (Epoch: 01 April)

Date Brightness Start Highest point End Pass type
(mag) Time Alt. Az. Time Alt. Az. Time Alt. Az.
01 Apr 7.8 00:52:14 10° NW 01:04:20 84° SW 01:06:11 69° SSE visible
01 Apr 8.9 03:05:51 10° NW 03:13:55 27° W 03:13:55 27° W visible
01 Apr 9.1 19:46:18 10° W 19:57:55 44° NNW 20:09:15 10° NE visible
01 Apr 8.8 22:02:19 10° NW 22:13:55 45° NNE 22:23:27 15° E visible
02 Apr 8.0 00:16:04 10° NW 00:28:14 83° NE 00:31:11 59° SE visible
02 Apr 8.6 02:29:20 10° NW 02:38:54 35° W 02:38:54 35° W visible
02 Apr 9.0 21:25:43 10° WNW 21:37:11 42° NNE 21:48:11 10° E visible
02 Apr 8.1 23:39:52 10° NW 23:52:02 72° NE 23:56:12 47° ESE visible
03 Apr 8.3 01:52:59 10° NW 02:03:55 45° WSW 02:03:56 45° WSW visible
03 Apr 9.0 20:49:02 10° WNW 21:00:25 41° N 21:11:24 10° ENE visible
03 Apr 8.3 23:03:38 10° NW 23:15:42 63° NE 23:21:15 36° ESE visible
04 Apr 8.0 01:16:43 10° NW 01:28:12 56° WSW 01:28:58 55° SW visible
04 Apr 9.4 03:32:37 10° WNW 03:36:43 14° W 03:36:43 14° W visible
04 Apr 9.1 20:12:14 10° WNW 20:23:39 40° N 20:34:40 10° ENE visible
04 Apr 8.5 22:27:20 10° NW 22:39:16 55° NNE 22:46:19 26° E visible
05 Apr 7.9 00:40:31 10° NW 00:52:22 69° WSW 00:54:03 62° SSW visible
05 Apr 9.2 02:54:57 10° NW 03:01:47 20° W 03:01:47 20° W visible
05 Apr 8.6 21:50:58 10° NW 22:02:43 49° NNE 22:11:24 19° E visible
06 Apr 7.9 00:04:21 10° NW 00:16:25 82° SW 00:19:09 60° SSE visible
06 Apr 8.9 02:18:03 10° NW 02:26:53 26° W 02:26:53 26° W visible
06 Apr 8.8 21:14:29 10° NW 21:26:06 45° NNE 21:36:32 12° E visible
06 Apr 8.0 23:28:11 10° NW 23:40:21 85° NE 23:44:17 50° SE visible
07 Apr 8.6 01:41:29 10° NW 01:51:31 34° WSW 01:52:01 34° WSW visible
07 Apr 8.9 20:37:55 10° WNW 20:49:23 42° NNE 21:00:23 10° E visible
07 Apr 8.1 22:52:00 10° NW 23:04:10 74° NE 23:09:25 39° ESE visible
08 Apr 8.4 01:05:06 10° NW 01:15:57 44° WSW 01:17:10 42° SW visible
08 Apr 9.0 20:01:14 10° WNW 20:12:38 41° N 20:23:36 10° ENE visible
08 Apr 8.3 22:15:46 10° NW 22:27:51 64° NE 22:34:35 29° ESE visible
09 Apr 8.1 00:28:50 10° NW 00:40:15 54° WSW 00:42:20 50° SW visible
09 Apr 9.5 02:45:06 10° WNW 02:49:31 13° W 02:50:05 13° W visible
09 Apr 8.4 21:39:29 10° NW 21:51:25 56° NNE 21:59:47 21° ESE visible
09 Apr 8.0 23:52:38 10° NW 00:04:26 67° WSW 00:07:31 52° S visible
10 Apr 9.2 02:07:13 10° WNW 02:14:18 19° W 02:15:16 18° W visible
10 Apr 8.6 21:03:07 10° NW 21:14:54 50° NNE 21:24:59 14° E visible
10 Apr 8.0 23:16:28 10° NW 23:28:30 80° SW 23:32:44 47° SSE visible
